This is the latest recevied weather packets stored in our database for station/object KQ4PPF. If no packets are shown the sender has not sent any weather packets the latest 10 day(s).
| Time | Temp. | Humidity | Pressure | Rain* | Wind** | Luminosity | Snow |
|---|---|---|---|---|---|---|---|
| 1778100817 | 19.44° C | 99% | 1011.4 hPa | 0 mm | - | 36 W/m² | - |
| 1778100514 | 18.89° C | 99% | 1011.4 hPa | 0 mm | - | 52 W/m² | - |
| 1778100212 | 19.44° C | 99% | 1011.6 hPa | 0 mm | - | 42 W/m² | - |
| 1778099909 | 19.44° C | 99% | 1011.4 hPa | 0 mm | - | 33 W/m² | - |
| 1778099606 | 19.44° C | 99% | 1011.8 hPa | 0 mm | - | 42 W/m² | - |
| 1778099303 | 19.44° C | 99% | 1012.2 hPa | 0 mm | - | 38 W/m² | - |
| 1778099000 | 19.44° C | 99% | 1011.7 hPa | 0 mm | - | 41 W/m² | - |
| 1778098691 | 19.44° C | 99% | 1012.2 hPa | 0 mm | - | 9 W/m² | - |
| 1778098389 | 20° C | 99% | 1011.5 hPa | 0 mm | - | 18 W/m² | - |
| 1778098086 | 20° C | 99% | 1011.4 hPa | 0 mm | - | 30 W/m² | - |
| 1778097782 | 20° C | 99% | 1011.5 hPa | 0 mm | - | 44 W/m² | - |
| 1778097478 | 20° C | 99% | 1011.7 hPa | 0 mm | - | 32 W/m² | - |
| 1778097175 | 20° C | 99% | 1011.8 hPa | 0 mm | - | 46 W/m² | - |
| 1778096872 | 20.56° C | 99% | 1011.6 hPa | 0 mm | - | 131 W/m² | - |
| 1778096568 | 20.56° C | 99% | 1011.7 hPa | 0 mm | - | 146 W/m² | - |
| 1778096266 | 20° C | 99% | 1011.9 hPa | 0 mm | - | 243 W/m² | - |
| 1778095962 | 20° C | 99% | 1012.4 hPa | 0 mm | - | 99 W/m² | - |
| 1778095658 | 20° C | 99% | 1012.2 hPa | 0 mm | - | 86 W/m² | - |
| 1778095355 | 20° C | 99% | 1012.2 hPa | 0 mm | - | 37 W/m² | - |
| 1778095052 | 19.44° C | 99% | 1012.2 hPa | 0 mm | - | 26 W/m² | - |
| 1778094748 | 19.44° C | 99% | 1011.7 hPa | 0 mm | - | 24 W/m² | - |
| 1778094446 | 19.44° C | 99% | 1011.8 hPa | 0 mm | - | 21 W/m² | - |
| 1778094143 | 19.44° C | 99% | 1011.6 hPa | 0 mm | - | 18 W/m² | - |
| 1778093840 | 20° C | 99% | 1012.3 hPa | 0 mm | - | 28 W/m² | - |
| 1778093536 | 20° C | 98% | 1011.8 hPa | 0 mm | - | 17 W/m² | - |
* Rain latest hour (hover to see other rain measurements)
** Current wind speed in m/s (hover to see current wind gust speed)